period_start,C,m1,H,J0,J1,J2,J3,J4,J5,JA,JB,JC,JD,JJ,JK,JN,#
2017-12-25 00:02:46,0.12,1.26,0.00,15.38,18.24,21.58,14.19,50.69,1001.46,2066.00,3063.52,2773.65,3178.11,599.81,602.61,18.00,0000 0000 0000 0000 000000
2017-12-25 00:07:47,0.11,1.27,0.00,15.41,18.24,21.57,14.14,50.67,1001.34,2066.00,3061.48,2771.87,3176.01,600.04,602.51,18.05,0000 0000 0000 0000 000000
2017-12-25 00:12:48,0.08,1.27,0.00,15.43,18.24,21.56,14.07,50.53,1001.37,2066.00,3060.48,2770.69,3174.59,600.04,602.55,18.10,0000 0000 0000 0000 000000
2017-12-25 00:17:50,0.09,1.27,0.00,15.44,18.24,21.56,14.12,51.00,1001.08,2066.01,3058.85,2769.42,3173.04,599.86,602.15,18.15,0000 0000 0000 0000 000000
2017-12-25 00:22:51,0.10,1.28,0.00,15.47,18.24,21.58,14.12,50.99,1000.99,2066.01,3057.35,2767.85,3171.35,599.93,602.07,18.20,0000 0000 0000 0000 000000
2017-12-25 00:27:53,0.05,1.28,0.00,15.50,18.24,21.55,14.13,50.92,1000.96,2066.02,3056.46,2766.95,3170.11,599.96,602.14,18.25,0000 0000 0000 0000 000000
2017-12-25 00:32:54,0.06,1.29,0.00,15.53,18.24,21.56,14.13,51.07,1000.82,2066.01,3055.51,2766.27,3169.20,599.95,601.88,18.30,0000 0000 0000 0000 000000
2017-12-25 00:37:55,0.08,1.29,0.00,15.53,18.24,21.59,14.15,51.00,1000.65,2066.01,3054.27,2765.07,3167.78,600.24,602.03,18.35,0000 0000 0000 0000 000000
2017-12-25 00:42:57,0.08,1.29,0.00,15.55,18.24,21.58,14.18,51.12,1000.58,2066.01,3052.86,2763.82,3166.28,600.16,601.95,18.40,0000 0000 0000 0000 000000
2017-12-25 00:47:58,0.07,1.30,0.00,15.56,18.24,21.62,14.16,51.05,1000.53,2066.02,3051.62,2762.82,3164.99,600.26,601.95,18.45,0000 0000 0000 0000 000000
2017-12-25 00:52:59,0.07,1.30,0.00,15.56,18.24,21.53,14.12,51.09,1000.50,2066.04,3050.50,2761.83,3163.68,599.72,601.43,18.50,0000 0000 0000 0000 000000
2017-12-25 00:58:01,0.07,1.31,0.00,15.57,18.24,21.60,14.18,51.11,1000.37,2066.02,3049.26,2760.77,3162.40,599.95,601.62,18.55,0000 0000 0000 0000 000000
2017-12-25 01:03:02,0.10,1.31,0.00,15.59,18.24,21.58,14.09,51.15,1000.12,2066.01,3047.64,2759.53,3160.82,599.89,601.44,18.60,0000 0000 0000 0000 000000
2017-12-25 01:08:03,0.09,1.32,0.00,15.59,18.24,21.57,14.06,51.02,1000.08,2066.01,3046.12,2758.08,3159.01,599.74,601.08,18.65,0000 0000 0000 0000 000000
2017-12-25 01:13:04,0.09,1.32,0.00,15.60,18.25,21.59,14.10,51.19,999.97,2066.02,3044.55,2756.75,3157.47,599.69,601.01,18.70,0000 0000 0000 0000 000000
2017-12-25 01:18:06,0.12,1.33,0.00,15.62,18.26,21.59,14.08,50.97,999.83,2066.01,3042.63,2755.18,3155.47,599.73,601.05,18.75,0000 0000 0000 0000 000000
2017-12-25 01:23:07,0.19,1.34,0.00,15.63,18.27,21.59,14.19,51.64,999.68,2066.09,3039.70,2752.94,3152.86,600.13,601.18,18.80,0000 0000 0000 0000 000000
2017-12-25 01:28:08,0.13,1.34,0.00,15.64,18.27,21.62,14.14,51.72,999.57,2066.17,3037.83,2751.15,3150.51,600.16,601.27,18.85,0000 0000 0000 0000 000000
2017-12-25 01:33:10,0.12,1.35,0.00,15.65,18.27,21.61,14.06,51.59,999.52,2066.17,3035.93,2749.23,3148.11,599.69,600.61,18.90,0000 0000 0000 0000 000000
2017-12-25 01:38:11,0.21,1.36,0.00,15.64,18.27,21.63,14.19,51.48,999.44,2066.31,3033.04,2746.85,3145.15,600.25,601.25,18.95,0000 0000 0000 0000 000000
2017-12-25 01:43:12,0.19,1.37,0.00,15.66,18.27,21.67,14.13,51.45,999.29,2066.54,3030.47,2744.40,3142.35,600.11,600.86,19.00,0000 0000 0000 0000 000000
2017-12-25 01:48:13,0.14,1.38,0.00,15.66,18.28,21.70,14.06,51.44,999.20,2066.45,3028.20,2741.66,3139.07,599.97,600.69,19.05,0000 0000 0000 0000 000000
2017-12-25 01:53:15,0.15,1.38,0.00,15.68,18.29,21.71,14.13,51.38,999.09,2066.17,3026.11,2739.37,3136.32,600.04,600.64,19.10,0000 0000 0000 0000 000000
2017-12-25 01:58:16,0.13,1.39,0.00,15.70,18.29,21.73,14.15,51.49,999.01,2066.17,3023.86,2737.20,3133.93,599.90,600.49,19.15,0000 0000 0000 0000 000000
2017-12-25 02:03:17,0.21,1.40,0.00,15.68,18.30,21.73,14.06,51.50,998.88,2066.44,3021.34,2735.09,3131.28,599.50,599.99,19.20,0000 0000 0000 0000 000000
2017-12-25 02:08:19,0.07,1.41,0.00,15.70,18.32,21.75,14.16,51.33,998.86,2066.34,3019.71,2733.35,3129.31,600.27,600.71,19.25,0000 0000 0000 0000 000000
2017-12-25 02:13:21,0.13,1.41,0.00,15.73,18.32,21.76,14.09,51.18,998.82,2066.13,3017.85,2731.35,3126.94,599.90,600.28,19.30,0000 0000 0000 0000 000000
2017-12-25 02:18:22,0.18,1.42,0.00,15.72,18.33,21.75,14.12,51.08,998.74,2066.06,3015.40,2728.81,3123.98,600.06,600.29,19.35,0000 0000 0000 0000 000000
2017-12-25 02:23:23,0.14,1.43,0.00,15.74,18.34,21.79,14.13,51.19,998.72,2066.09,3013.24,2726.68,3121.48,600.11,600.37,19.41,0000 0000 0000 0000 000000
2017-12-25 02:28:24,0.14,1.44,0.00,15.76,18.35,21.70,14.05,51.23,998.69,2066.12,3010.94,2724.70,3118.95,599.71,600.02,19.46,0000 0000 0000 0000 000000
2017-12-25 02:33:25,0.13,1.44,0.00,15.77,18.37,21.79,14.08,51.23,998.78,2066.06,3009.06,2723.08,3116.61,600.05,600.15,19.51,0000 0000 0000 0000 000000
2017-12-25 02:38:27,0.18,1.45,0.00,15.79,18.38,21.72,14.12,51.38,998.63,2066.07,3006.79,2720.66,3113.79,599.88,599.97,19.56,0000 0000 0000 0000 000000
2017-12-25 02:43:28,0.20,1.46,0.00,15.80,18.39,21.83,14.06,51.38,998.58,2066.02,3003.94,2717.63,3110.14,599.59,599.69,19.61,0000 0000 0000 0000 000000
2017-12-25 02:48:30,0.36,1.48,0.00,15.84,18.40,21.83,14.02,51.42,998.51,2066.01,2999.82,2712.89,3104.96,599.79,599.64,19.66,0000 0000 0000 0000 000000
2017-12-25 02:53:31,0.76,1.51,0.00,15.86,18.42,21.82,14.06,51.38,998.51,2066.01,2991.41,2702.52,3094.25,600.21,600.11,19.71,0000 0000 0000 0000 000000
2017-12-25 02:58:32,0.11,1.53,0.00,15.88,18.43,21.86,14.04,51.17,998.38,2066.02,2988.21,2698.54,3089.82,599.74,599.35,19.76,0000 0000 0000 0000 000000
2017-12-25 03:03:34,0.09,1.53,0.00,15.91,18.44,21.89,14.10,51.02,998.33,2066.00,2986.66,2697.29,3088.18,600.26,599.91,19.81,0000 0000 0000 0000 000000
2017-12-25 03:08:35,0.09,1.54,0.00,15.95,18.45,21.88,14.07,51.08,998.13,2066.00,2985.30,2696.18,3086.59,599.85,599.26,19.86,0000 0000 0000 0000 000000
2017-12-25 03:13:36,0.12,1.54,0.00,15.98,18.47,21.90,14.09,50.95,998.06,2066.00,2983.63,2694.69,3084.68,599.95,599.35,19.91,0000 0000 0000 0000 000000
2017-12-25 03:18:38,0.10,1.55,0.00,16.02,18.49,21.86,14.08,50.92,998.05,2065.99,2981.96,2693.37,3082.71,600.27,599.45,19.96,0000 0000 0000 0000 000000
2017-12-25 03:23:39,0.11,1.55,0.00,16.06,18.50,21.85,14.01,50.88,998.03,2065.97,2980.21,2691.80,3080.74,599.70,598.88,20.01,0000 0000 0000 0000 000000
2017-12-25 03:28:41,0.11,1.56,0.00,16.09,18.52,21.76,14.05,50.91,997.89,2065.96,2978.16,2690.37,3078.75,599.99,599.09,20.06,0000 0000 0000 0000 000000
2017-12-25 03:33:42,0.13,1.57,0.00,16.12,18.54,21.75,14.06,50.98,997.63,2065.97,2975.96,2688.67,3076.71,600.22,599.09,20.11,0000 0000 0000 0000 000000
2017-12-25 03:38:43,0.13,1.57,0.00,16.14,18.56,21.73,14.04,50.94,997.61,2065.98,2973.84,2686.81,3074.52,600.24,598.97,20.16,0000 0000 0000 0000 000000
2017-12-25 03:43:45,0.16,1.58,0.00,16.16,18.57,21.76,14.03,51.12,997.57,2065.95,2971.61,2684.77,3071.88,600.09,598.79,20.21,0000 0000 0000 0000 000000
2017-12-25 03:48:46,0.15,1.59,0.00,16.19,18.59,21.77,14.05,51.14,997.56,2065.96,2969.06,2682.62,3069.26,599.97,598.56,20.26,0000 0000 0000 0000 000000
2017-12-25 03:53:47,0.14,1.59,0.00,16.21,18.61,21.79,14.05,51.18,997.48,2065.94,2967.00,2680.76,3066.86,599.94,598.55,20.31,0000 0000 0000 0000 000000
2017-12-25 03:58:49,0.14,1.60,0.00,16.23,18.63,21.84,14.03,51.34,997.45,2065.92,2964.54,2678.86,3064.34,599.97,598.44,20.36,0000 0000 0000 0000 000000
2017-12-25 04:03:50,0.13,1.61,0.00,16.26,18.65,21.84,14.03,51.20,997.44,2065.92,2962.40,2677.23,3062.14,600.06,598.48,20.41,0000 0000 0000 0000 000000
2017-12-25 04:08:51,0.08,1.62,0.00,16.26,18.68,21.87,14.06,51.26,997.38,2065.83,2960.78,2675.85,3060.40,600.27,598.62,20.46,0000 0000 0000 0000 000000
2017-12-25 04:13:53,0.15,1.62,0.00,16.29,18.69,21.91,14.05,51.15,997.42,2065.52,2958.51,2674.05,3057.81,600.08,598.37,20.51,0000 0000 0000 0000 000000
2017-12-25 04:18:54,0.09,1.63,0.00,16.30,18.72,21.93,14.11,51.14,997.43,2065.15,2956.26,2671.70,3055.02,600.39,598.72,20.56,0000 0000 0000 0000 000000
2017-12-25 04:23:55,0.14,1.64,0.00,16.33,18.74,21.95,14.12,51.17,997.48,2065.05,2954.25,2669.83,3053.12,600.23,598.50,20.61,0000 0000 0000 0000 000000
2017-12-25 04:28:57,0.12,1.64,0.00,16.36,18.76,22.02,14.05,51.25,997.46,2065.02,2952.19,2668.14,3050.68,600.27,598.64,20.66,0000 0000 0000 0000 000000
2017-12-25 04:33:58,0.12,1.65,0.00,16.38,18.78,22.02,14.01,51.05,997.56,2065.01,2950.39,2666.49,3048.45,599.93,598.07,20.71,0000 0000 0000 0000 000000
2017-12-25 04:38:59,0.15,1.65,0.00,16.40,18.80,22.04,14.06,51.27,997.51,2065.00,2948.19,2664.82,3046.05,599.81,597.97,20.76,0000 0000 0000 0000 000000
2017-12-25 04:44:01,0.13,1.66,0.00,16.43,18.83,22.07,14.00,51.19,997.57,2064.99,2946.02,2663.06,3043.73,600.19,598.41,20.81,0000 0000 0000 0000 000000
2017-12-25 04:49:02,0.12,1.67,0.00,16.45,18.85,22.12,14.02,51.24,997.55,2064.98,2944.01,2661.52,3041.57,600.00,598.05,20.86,0000 0000 0000 0000 000000
2017-12-25 04:54:03,0.10,1.68,0.00,16.47,18.87,22.11,14.02,51.23,997.53,2064.97,2942.07,2660.19,3039.68,599.93,597.93,20.91,0000 0000 0000 0000 000000
2017-12-25 04:59:04,0.12,1.68,0.00,16.48,18.89,22.10,14.05,51.15,997.52,2064.79,2940.12,2658.63,3037.39,600.17,598.14,20.96,0000 0000 0000 0000 000000
2017-12-25 05:04:05,0.05,1.68,0.00,16.51,18.91,22.10,14.06,51.16,997.47,2064.41,2938.26,2657.24,3035.30,600.09,598.07,21.01,0000 0000 0000 0000 000000
2017-12-25 05:09:07,0.11,1.69,0.00,16.53,18.93,22.13,14.01,51.26,997.37,2064.06,2936.21,2655.82,3033.17,599.95,597.75,21.06,0000 0000 0000 0000 000000
2017-12-25 05:14:08,0.16,1.70,0.00,16.55,18.95,22.16,14.01,51.36,997.39,2064.05,2933.74,2653.83,3030.71,600.31,598.11,21.11,0000 0000 0000 0000 000000
2017-12-25 05:19:10,0.30,1.71,0.00,16.57,18.98,22.17,14.08,51.64,997.44,2064.06,2930.48,2650.51,3026.69,600.25,598.02,21.16,0000 0000 0000 0000 000000
2017-12-25 05:24:11,0.17,1.72,0.00,16.58,18.99,22.19,14.04,51.22,997.45,2064.05,2927.88,2647.44,3022.83,599.93,597.68,21.21,0000 0000 0000 0000 000000
2017-12-25 05:29:12,0.18,1.73,0.00,16.60,19.02,22.22,14.05,51.35,997.44,2064.01,2925.01,2644.93,3019.68,599.89,597.60,21.26,0000 0000 0000 0000 000000
2017-12-25 05:34:13,0.13,1.74,0.00,16.63,19.03,22.24,14.03,51.21,997.41,2064.00,2922.68,2643.43,3017.10,599.88,597.51,21.31,0000 0000 0000 0000 000000
2017-12-25 05:39:15,0.14,1.74,0.00,16.65,19.06,22.27,14.06,51.41,997.41,2064.00,2920.50,2641.80,3014.70,600.09,597.67,21.36,0000 0000 0000 0000 000000
2017-12-25 05:44:16,0.12,1.75,0.00,16.67,19.08,22.29,14.08,51.35,997.52,2064.00,2918.32,2640.30,3012.30,600.23,598.05,21.41,0000 0000 0000 0000 000000
2017-12-25 05:49:17,0.16,1.76,0.00,16.70,19.11,22.30,13.99,51.45,997.46,2063.99,2916.01,2638.46,3009.83,600.31,597.62,21.46,0000 0000 0000 0000 000000
2017-12-25 05:54:19,0.14,1.77,0.00,16.72,19.13,22.32,14.10,51.23,997.46,2063.97,2913.47,2636.78,3007.38,600.29,597.76,21.51,0000 0000 0000 0000 000000
2017-12-25 05:59:20,0.16,1.77,0.00,16.74,19.15,22.35,13.97,51.49,997.42,2063.94,2910.59,2634.97,3004.69,599.81,597.29,21.56,0000 0000 0000 0000 000000
2017-12-25 06:04:21,0.11,1.78,0.00,16.75,19.17,22.39,13.95,51.54,997.24,2063.82,2908.36,2633.45,3002.42,599.69,596.96,21.61,0000 0000 0000 0000 000000
2017-12-25 06:09:23,0.14,1.79,0.00,16.78,19.19,22.42,13.99,51.47,997.30,2063.45,2905.75,2631.43,2999.69,599.82,597.19,21.66,0000 0000 0000 0000 000000
2017-12-25 06:14:24,0.13,1.79,0.00,16.79,19.22,22.41,14.02,51.43,997.39,2063.22,2903.18,2629.58,2996.95,599.87,597.16,21.71,0000 0000 0000 0000 000000
2017-12-25 06:19:25,0.16,1.80,0.00,16.80,19.23,22.44,14.01,51.29,997.56,2063.06,2900.62,2627.58,2994.26,600.02,597.39,21.76,0000 0000 0000 0000 000000
2017-12-25 06:24:26,0.13,1.81,0.00,16.84,19.25,22.47,14.04,51.17,997.61,2063.04,2898.40,2625.97,2991.73,600.12,597.35,21.81,0000 0000 0000 0000 000000
2017-12-25 06:29:27,0.12,1.82,0.00,16.85,19.28,22.48,14.05,51.23,997.60,2063.00,2896.24,2624.50,2989.47,600.17,597.30,21.86,0000 0000 0000 0000 000000
2017-12-25 06:34:28,0.14,1.82,0.00,16.88,19.29,22.50,14.03,51.32,997.63,2063.00,2894.00,2623.10,2987.30,600.20,597.50,21.91,0000 0000 0000 0000 000000
2017-12-25 06:39:30,0.13,1.83,0.00,16.91,19.32,22.51,14.04,51.33,997.63,2063.00,2891.73,2621.44,2985.05,600.11,597.21,21.96,0000 0000 0000 0000 000000
2017-12-25 06:44:31,0.13,1.84,0.00,16.95,19.34,22.55,14.00,51.23,997.67,2063.00,2889.16,2619.85,2982.56,599.67,596.81,22.01,0000 0000 0000 0000 000000
2017-12-25 06:49:32,0.13,1.84,0.00,16.98,19.36,22.56,14.05,51.23,997.79,2062.98,2887.08,2618.28,2980.26,599.81,596.95,22.06,0000 0000 0000 0000 000000
2017-12-25 06:54:33,0.15,1.85,0.00,16.99,19.38,22.60,13.96,51.11,997.76,2062.92,2884.79,2616.58,2977.82,599.41,596.54,22.11,0000 0000 0000 0000 000000
2017-12-25 06:59:35,0.10,1.86,0.00,17.02,19.41,22.60,13.98,51.18,997.62,2062.77,2882.71,2615.24,2975.84,600.24,597.23,22.16,0000 0000 0000 0000 000000
2017-12-25 07:04:36,0.17,1.86,0.00,17.03,19.43,22.60,14.00,51.47,997.43,2062.55,2880.05,2613.40,2973.33,599.99,596.74,22.21,0000 0000 0000 0000 000000
2017-12-25 07:09:38,0.26,1.88,0.00,17.04,19.45,22.61,13.96,51.25,997.36,2062.84,2876.61,2610.52,2969.77,600.21,596.95,22.26,0000 0000 0000 0000 000000
2017-12-25 07:14:39,0.15,1.89,0.00,17.04,19.47,22.65,14.00,51.33,997.23,2062.46,2873.67,2607.49,2966.00,599.84,596.50,22.31,0000 0000 0000 0000 000000
2017-12-25 07:19:40,0.21,1.90,0.00,17.08,19.49,22.66,13.97,51.45,997.17,2062.12,2870.54,2604.76,2962.56,600.18,596.73,22.36,0000 0000 0000 0000 000000
2017-12-25 07:24:42,0.17,1.90,0.00,17.09,19.51,22.66,14.01,51.37,997.24,2062.05,2868.02,2602.38,2959.42,599.89,596.39,22.41,0000 0000 0000 0000 000000
2017-12-25 07:29:43,0.19,1.91,0.00,17.11,19.53,22.70,13.99,51.26,997.36,2062.02,2865.40,2600.20,2956.44,599.78,596.33,22.46,0000 0000 0000 0000 000000
2017-12-25 07:34:44,0.14,1.92,0.00,17.15,19.54,22.72,13.97,51.33,997.27,2062.00,2862.95,2598.33,2953.90,599.96,596.43,22.52,0000 0000 0000 0000 000000
2017-12-25 07:39:46,0.17,1.93,0.00,17.17,19.57,22.74,13.99,51.38,997.25,2061.99,2860.30,2596.42,2951.10,599.67,596.14,22.57,0000 0000 0000 0000 000000
2017-12-25 07:44:47,0.19,1.94,0.00,17.18,19.59,22.75,14.00,51.31,997.13,2061.98,2857.68,2594.16,2948.19,600.39,596.62,22.62,0000 0000 0000 0000 000000
2017-12-25 07:49:49,0.09,1.95,0.00,17.19,19.61,22.79,13.92,51.23,997.24,2061.80,2855.79,2592.62,2945.79,599.88,596.24,22.67,0000 0000 0000 0000 000000
2017-12-25 07:54:50,0.20,1.95,0.00,17.21,19.63,22.84,14.02,51.38,997.14,2061.34,2852.65,2590.02,2942.52,599.97,596.20,22.72,0000 0000 0000 0000 000000
2017-12-25 07:59:52,0.16,1.96,0.00,17.22,19.66,22.84,13.93,51.39,997.11,2061.07,2849.67,2587.55,2939.24,599.62,595.91,22.77,0000 0000 0000 0000 000000
2017-12-25 08:04:53,0.21,1.97,0.00,17.23,19.68,22.86,13.97,51.39,997.15,2061.03,2846.56,2585.17,2936.10,599.99,596.30,22.82,0000 0000 0000 0000 000000
2017-12-25 08:09:54,0.18,1.98,0.00,17.25,19.70,22.89,13.99,51.30,997.10,2061.00,2843.62,2582.92,2933.14,600.00,596.18,22.87,0000 0000 0000 0000 000000
2017-12-25 08:14:56,0.14,1.99,0.00,17.26,19.73,22.91,13.96,51.36,997.11,2061.00,2841.15,2581.03,2930.49,599.84,596.00,22.92,0000 0000 0000 0000 000000
2017-12-25 08:19:57,0.18,2.00,0.00,17.28,19.75,22.94,13.93,51.37,997.07,2061.00,2838.56,2579.22,2928.14,599.69,595.83,22.97,0000 0000 0000 0000 000000
2017-12-25 08:24:58,0.17,2.01,0.00,17.30,19.78,22.96,13.97,51.32,997.08,2060.99,2835.94,2576.93,2925.16,600.14,596.18,23.02,0000 0000 0000 0000 000000
2017-12-25 08:29:59,0.22,2.02,0.00,17.31,19.80,23.00,13.98,51.27,997.06,2060.96,2833.01,2574.28,2922.10,599.94,595.97,23.07,0000 0000 0000 0000 000000
2017-12-25 08:35:00,0.17,2.03,0.00,17.33,19.82,23.01,13.93,51.48,997.05,2060.93,2830.06,2571.88,2919.18,599.88,595.86,23.12,0000 0000 0000 0000 000000
2017-12-25 08:40:02,0.14,2.04,0.00,17.35,19.84,23.04,14.02,51.38,997.07,2060.78,2827.77,2570.01,2916.84,600.20,596.09,23.17,0000 0000 0000 0000 000000
2017-12-25 08:45:03,0.13,2.04,0.00,17.36,19.87,23.04,13.98,51.58,996.97,2060.62,2825.65,2568.11,2914.47,599.89,595.74,23.22,0000 0000 0000 0000 000000
2017-12-25 08:50:04,0.15,2.05,0.00,17.38,19.89,23.08,13.94,51.61,996.86,2060.19,2823.01,2566.03,2911.86,600.18,595.95,23.27,0000 0000 0000 0000 000000
2017-12-25 08:55:05,0.16,2.06,0.00,17.39,19.91,23.12,13.96,51.38,996.76,2060.07,2820.54,2563.82,2909.23,600.07,595.79,23.32,0000 0000 0000 0000 000000
2017-12-25 09:00:07,0.19,2.07,0.00,17.40,19.93,23.13,13.97,51.51,996.64,2060.05,2818.02,2561.42,2906.37,600.02,595.66,23.37,0000 0000 0000 0000 000000
2017-12-25 09:05:08,0.17,2.08,0.00,17.41,19.95,23.16,14.01,51.55,996.65,2060.02,2815.53,2559.26,2903.59,599.76,595.39,23.42,0000 0000 0000 0000 000000
2017-12-25 09:10:09,0.14,2.09,0.00,17.42,19.98,23.19,13.99,51.48,996.67,2060.02,2813.39,2557.48,2901.13,599.99,595.55,23.47,0000 0000 0000 0000 000000
2017-12-25 09:15:10,0.20,2.09,0.00,17.42,19.99,23.23,13.94,51.67,996.73,2060.02,2810.64,2555.27,2898.53,599.88,595.48,23.52,0000 0000 0000 0000 000000
2017-12-25 09:20:12,0.11,2.10,0.00,17.31,20.02,23.24,13.99,51.40,996.80,2060.00,2809.02,2553.65,2896.38,600.03,595.87,23.57,0000 0000 0000 0000 000000
2017-12-25 09:25:13,0.28,2.11,0.00,17.28,20.03,23.26,13.92,51.60,996.90,2060.00,2806.17,2551.17,2893.33,599.81,595.80,23.62,0000 0000 0000 0000 000000
2017-12-25 09:30:14,0.20,2.13,0.00,17.36,20.05,23.28,13.96,51.53,996.97,2059.99,2802.86,2547.36,2889.12,599.99,595.93,23.67,0000 0000 0000 0000 000000
2017-12-25 09:35:15,0.20,2.14,0.00,17.40,20.07,23.27,14.01,51.56,996.98,2059.99,2800.24,2544.87,2886.23,599.90,595.62,23.72,0000 0000 0000 0000 000000
2017-12-25 09:40:17,0.13,2.14,0.00,17.43,20.09,23.26,14.00,51.38,996.96,2059.97,2798.26,2542.98,2884.09,600.04,595.66,23.77,0000 0000 0000 0000 000000
2017-12-25 09:45:18,0.16,2.15,0.00,17.45,20.11,23.28,13.92,51.41,996.97,2059.99,2795.93,2540.92,2881.88,600.08,595.84,23.82,0000 0000 0000 0000 000000
2017-12-25 09:50:20,0.19,2.16,0.00,17.46,20.13,23.33,14.01,51.29,997.09,2059.99,2792.96,2538.25,2879.14,600.01,595.74,23.87,0000 0000 0000 0000 000000
2017-12-25 09:55:21,0.21,2.17,0.00,17.49,20.14,23.46,14.05,51.56,997.25,2059.99,2789.81,2535.75,2876.44,599.93,595.68,23.92,0000 0000 0000 0000 000000
2017-12-25 10:00:22,0.12,2.18,0.00,17.47,20.15,23.59,13.97,51.41,997.49,2059.99,2788.19,2534.10,2874.64,600.13,596.09,23.97,0000 0000 0000 0000 000000
2017-12-25 10:05:24,0.18,2.19,0.00,17.47,20.16,23.57,14.00,51.53,997.50,2060.00,2785.95,2532.13,2872.22,599.77,595.73,24.02,0000 0000 0000 0000 000000
2017-12-25 10:10:25,0.10,2.19,0.00,17.48,20.17,23.59,13.96,51.52,997.56,2060.01,2784.23,2530.36,2870.27,599.70,595.71,24.07,0000 0000 0000 0000 000000
2017-12-25 10:15:26,0.14,2.20,0.00,17.49,20.17,23.61,13.99,51.52,997.57,2060.00,2782.58,2528.63,2868.22,599.83,595.73,24.12,0000 0000 0000 0000 000000
2017-12-25 10:20:28,0.16,2.21,0.00,17.49,20.17,23.63,14.03,51.48,997.60,2060.00,2780.84,2526.86,2866.16,600.32,596.14,24.17,0000 0000 0000 0000 000000
2017-12-25 10:25:29,0.09,2.22,0.00,17.50,20.17,23.61,14.01,51.48,997.71,2060.00,2779.20,2525.24,2864.38,599.77,595.80,24.22,0000 0000 0000 0000 000000
2017-12-25 10:30:31,0.13,2.22,0.00,17.50,20.17,23.63,14.01,51.44,997.83,2060.00,2777.73,2523.72,2862.63,599.91,596.07,24.27,0000 0000 0000 0000 000000
2017-12-25 10:35:32,0.17,2.23,0.00,17.49,20.17,23.59,14.04,51.40,998.01,2059.99,2775.42,2521.58,2860.17,600.20,596.41,24.32,0000 0000 0000 0000 000000
2017-12-25 10:40:33,0.11,2.24,0.00,17.48,20.17,23.59,13.99,51.33,998.05,2060.00,2773.93,2520.02,2858.49,600.18,596.35,24.37,0000 0000 0000 0000 000000
2017-12-25 10:45:34,0.14,2.24,0.00,17.48,20.17,23.58,14.01,51.30,998.07,2060.00,2772.10,2518.37,2856.81,600.06,596.33,24.42,0000 0000 0000 0000 000000
2017-12-25 10:50:36,0.13,2.25,0.00,17.49,20.17,23.55,14.03,51.25,998.13,2060.00,2770.36,2516.78,2854.88,599.91,596.31,24.47,0000 0000 0000 0000 000000
2017-12-25 10:55:37,0.09,2.25,0.00,17.47,20.17,23.56,14.01,51.32,998.30,2060.00,2769.03,2515.45,2853.31,600.01,596.50,24.52,0000 0000 0000 0000 000000
2017-12-25 11:00:39,0.14,2.26,0.00,17.49,20.15,23.54,14.02,51.44,998.41,2060.01,2767.12,2513.71,2851.25,599.97,596.44,24.57,0000 0000 0000 0000 000000
2017-12-25 11:05:40,0.18,2.27,0.00,17.49,20.14,23.53,14.00,51.42,998.49,2060.01,2764.93,2511.75,2848.93,599.83,596.34,24.62,0000 0000 0000 0000 000000
2017-12-25 11:10:41,0.14,2.28,0.00,17.49,20.14,23.50,13.97,51.32,998.50,2060.00,2763.26,2509.88,2846.86,599.65,596.07,24.67,0000 0000 0000 0000 000000
2017-12-25 11:15:42,0.07,2.28,0.00,17.51,20.14,23.51,13.97,51.14,998.58,2060.00,2762.17,2508.64,2845.19,599.98,596.56,24.72,0000 0000 0000 0000 000000
2017-12-25 11:20:43,0.11,2.29,0.00,17.52,20.12,23.52,14.00,51.22,998.68,2060.01,2760.98,2507.32,2843.71,599.67,596.23,24.77,0000 0000 0000 0000 000000
2017-12-25 11:25:44,0.09,2.29,0.00,17.52,20.12,23.49,13.98,51.28,998.76,2060.00,2759.64,2505.96,2842.18,599.76,596.36,24.82,0000 0000 0000 0000 000000
2017-12-25 11:30:46,0.12,2.30,0.00,17.53,20.12,23.45,13.97,51.29,998.74,2060.00,2758.29,2504.55,2840.54,600.05,596.69,24.87,0000 0000 0000 0000 000000
2017-12-25 11:35:47,0.11,2.30,0.00,17.54,20.10,23.43,13.99,51.41,998.77,2060.00,2756.71,2503.22,2838.76,599.76,596.34,24.92,0000 0000 0000 0000 000000
2017-12-25 11:40:48,0.12,2.31,0.00,17.55,20.09,23.45,14.04,51.44,998.61,2060.00,2755.31,2501.78,2837.11,599.84,596.32,24.97,0000 0000 0000 0000 000000
2017-12-25 11:45:50,0.18,2.32,0.00,17.56,20.09,23.43,13.99,51.44,998.57,2060.00,2753.03,2499.70,2834.92,600.08,596.52,25.02,0000 0000 0000 0000 000000
2017-12-25 11:50:51,0.12,2.33,0.00,17.57,20.07,23.43,14.00,51.37,998.55,2060.01,2751.37,2497.94,2832.75,600.26,596.69,25.07,0000 0000 0000 0000 000000
2017-12-25 11:55:52,0.17,2.33,0.00,17.59,20.07,23.39,13.97,51.32,998.56,2060.01,2749.45,2495.97,2830.47,599.58,595.95,25.12,0000 0000 0000 0000 000000
2017-12-25 12:00:54,0.12,2.34,0.00,17.58,20.06,23.38,13.95,51.46,998.55,2060.02,2747.38,2494.39,2828.38,599.72,596.08,25.17,0000 0000 0000 0000 000000
2017-12-25 12:05:55,0.13,2.35,0.00,17.56,20.04,23.38,13.98,51.48,998.54,2060.04,2745.95,2492.89,2826.82,600.02,596.37,25.22,0000 0000 0000 0000 000000
2017-12-25 12:10:56,0.09,2.35,0.00,17.55,20.04,23.37,14.04,51.52,998.47,2060.07,2744.57,2491.63,2825.35,600.07,596.49,25.27,0000 0000 0000 0000 000000
2017-12-25 12:15:57,0.16,2.36,0.00,17.55,20.02,23.36,13.92,51.40,998.42,2060.10,2742.72,2489.84,2823.33,599.94,596.18,25.33,0000 0000 0000 0000 000000
2017-12-25 12:20:58,0.10,2.37,0.00,17.53,20.02,23.39,14.01,51.51,998.33,2060.11,2741.25,2488.46,2821.67,599.89,596.21,25.38,0000 0000 0000 0000 000000
2017-12-25 12:25:59,0.13,2.37,0.00,17.53,20.01,23.36,13.98,51.52,998.40,2060.13,2739.66,2486.87,2819.84,599.64,596.01,25.43,0000 0000 0000 0000 000000
2017-12-25 12:31:01,0.15,2.38,0.00,17.53,19.99,23.35,13.97,51.52,998.42,2060.12,2738.01,2485.04,2817.89,600.06,596.55,25.48,0000 0000 0000 0000 000000
2017-12-25 12:36:02,0.24,2.39,0.00,17.53,19.99,23.32,14.05,51.69,998.39,2060.61,2735.50,2482.91,2815.31,600.33,596.61,25.53,0000 0000 0000 0000 000000
2017-12-25 12:41:03,0.13,2.40,0.00,17.52,19.98,23.34,13.97,51.61,998.42,2060.91,2733.75,2481.11,2813.50,599.80,596.19,25.58,0000 0000 0000 0000 000000
2017-12-25 12:46:05,0.10,2.41,0.00,17.52,19.97,23.30,14.00,51.69,998.34,2060.95,2732.48,2479.91,2812.03,600.16,596.43,25.63,0000 0000 0000 0000 000000
2017-12-25 12:51:06,0.13,2.41,0.00,17.51,19.95,23.31,13.96,51.69,998.22,2060.98,2730.69,2478.52,2810.49,599.90,596.06,25.68,0000 0000 0000 0000 000000
2017-12-25 12:56:07,0.06,2.42,0.00,17.51,19.94,23.29,14.04,51.65,998.30,2060.98,2729.93,2477.41,2809.16,599.84,596.13,25.73,0000 0000 0000 0000 000000
2017-12-25 13:01:09,0.12,2.42,0.00,17.50,19.92,23.24,14.01,51.77,998.38,2060.99,2728.68,2476.10,2807.82,600.00,596.42,25.78,0000 0000 0000 0000 000000